Regional Weather Roundup
Issued by NWS

Home | Current Version | Previous Version | Text Only | Print | Product List | Glossary Off
Versions: 1 2 3 4 5 6 7 8 9 10 11 12 13 14 15 16 17 18 19 20 21 22 23 24 25 26 27 28 29 30 31 32 33 34 35 36 37 38 39 40 41 42 43 44 45 46 47 48 49 50

711
ASUS43 KIND 282009
RWRIN

WEATHER ROUNDUP FOR INDIANA
NATIONAL WEATHER SERVICE INDIANAPOLIS IN
400 PM EDT TUE MAR 28 2017

NOTE: "FAIR" INDICATES FEW OR NO CLOUDS BELOW 12,000 FEET WITH NO
SIGNIFICANT WEATHER AND/OR OBSTRUCTIONS TO VISIBILITY.

* - STATION DOES NOT REPORT WEATHER SUCH AS PRECIPITATION OR FOG.

+ - STATION NOT QUALITY CONTROLLED BY THE NATIONAL WEATHER SERVICE.
    USE DATA WITH CAUTION...ESPECIALLY DEWPOINT AND RELATIVE
    HUMIDITY OBSERVATIONS.

INZ001>003-010>013-019-020-282100-
NORTHWEST INDIANA

CITY           SKY/WX    TMP DP  RH WIND       PRES   REMARKS
GARY /AIRPORT/ CLOUDY    43  37  81 N14       30.15R
KNOX *+        CLOUDY    45  27  49 N7        30.10R
LA PORTE +     CLOUDY    43  39  86 NW9       30.12R
MICHIGAN CITY+ CLOUDY    41  41 100 N8        30.14R
MONTICELLO +   CLOUDY    49  42  76 NW9       30.10R
RENSSELAER +   CLOUDY    45  41  87 N8        30.12R
VALPARAISO     CLOUDY    44  39  82 N10       30.13R

$$

LMZ046-743>745-282100-
SOUTHERN LAKE MICHIGAN

STATION/POSITION TIME  TEMP    WIND        PRES    WAVE
                       AIR SEA DIR/SP/G            HT
                 (UTC) (F)     (DEG/KT/KT) (MB)    (FT)
BURNS HARBOR     1940   39     350/ 12/ 15 1021.0R

$$

INZ004-005-014>016-021>024-282100-
NORTH CENTRAL INDIANA

CITY           SKY/WX    TMP DP  RH WIND       PRES   REMARKS
ELKHART        CLOUDY    46  41  81 NE6       30.09S
GOSHEN         CLOUDY    49  40  71 NE8       30.08S
LOGANSPORT +   CLOUDY    48  43  81 N8        30.09R
PERU/GRISSOM   CLOUDY    50  45  84 N7        30.07R
ROCHESTER +    CLOUDY    50  45  81 N6        30.09R
SOUTH BEND     CLOUDY    46  41  82 N9        30.11R
WARSAW +       CLOUDY    46  41  81 N7        30.08S

$$

INZ006>009-017-018-025>027-282100-
NORTHEAST INDIANA

CITY           SKY/WX    TMP DP  RH WIND       PRES   REMARKS
ANGOLA *+      CLOUDY    46  36  66 N7        30.08R
AUBURN +       CLOUDY    48  41  76 N6        30.08R
FORT WAYNE     CLOUDY    51  44  77 N5        30.07S
HUNTINGTON +   CLOUDY    51  45  82 N5        30.06S
KENDALLVILLE + CLOUDY    48  42  78 N8        30.08R

$$

INZ028-029-035-036-043>045-051>053-282100-
WEST CENTRAL INDIANA

CITY           SKY/WX    TMP DP  RH WIND       PRES   REMARKS
CRAWFORDSVL +  CLOUDY    54  46  75 N7        30.08S
GREENCASTLE +  CLOUDY    54  45  71 N8        30.07S
LAFAYETTE      CLOUDY    50  43  77 N12       30.09R
TERRE HAUTE    CLOUDY    60  47  61 N7        30.06S

$$

INZ030>032-037>040-046>048-054>057-064-065-282100-
CENTRAL INDIANA

CITY           SKY/WX    TMP DP  RH WIND       PRES   REMARKS
ANDERSON       CLOUDY    54  46  76 N6        30.06
CP ATTERBURY + CLOUDY    55  48  76 N5        30.06R
COLUMBUS       CLOUDY    57  54  88 N8        30.05S
FRANKFORT +    CLOUDY    55  47  73 NW9       30.09R
GREENWOOD *+   CLOUDY    57  48  73 N9        30.06R
INDIANAPOLIS   CLOUDY    57  47  69 NW9       30.06R
-EAGLE CREEK   CLOUDY    56  46  69 N10       30.05S
KOKOMO +       CLOUDY    52  45  77 N9        30.08S
MARION +       CLOUDY    53  45  75 N6        30.07S
MT COMFORT *+  CLOUDY    54  46  76 N6        30.06S
SHELBYVILLE    CLOUDY    58  49  72 N10       30.04S
ZIONSVILLE +   CLOUDY    53  47  80 N7        30.07R

$$

INZ033-034-041-042-049-050-058-059-282100-
EAST CENTRAL INDIANA

CITY           SKY/WX    TMP DP  RH WIND       PRES   REMARKS
MUNCIE         CLOUDY    53  47  79 NE8       30.05S
RICHMOND +     CLOUDY    50  46  87 N8        30.05S FOG

$$

INZ060-061-067>069-081>083-085>088-282100-
SOUTHWEST INDIANA

CITY           SKY/WX    TMP DP  RH WIND       PRES   REMARKS
EVANSVILLE     CLOUDY    61  51  70 N5        30.06S
HUNTINGBURG *+ CLOUDY    62  54  74 N9        30.04S
WASHINGTON +   CLOUDY    60  49  66 CALM      30.04S

$$

INZ062-063-066-070>080-084-089>092-282100-
SOUTH CENTRAL AND SOUTHEAST INDIANA

CITY           SKY/WX    TMP DP  RH WIND       PRES   REMARKS
BEDFORD +      CLOUDY    59  48  67 N5        30.03F
BLOOMINGTON    CLOUDY    59  48  67 N8        30.05R
MADISON *+     CLOUDY    59  50  72 NW9       30.05R
NORTH VERNON + CLOUDY    57  55  94 N7        30.04S
SEYMOUR +      CLOUDY    61  50  67 NE6       30.04S

$$





USA.gov is the U.S. government's official web portal to all federal, state and local government web resources and services.